Weather History for KMAO - March, 2013

Change the Weather History Date:

Monday, March 18, 2013

  Actual Average (KFLO) Record (KFLO)
Temperature  
Mean Temperature 54 °F 56 °F  
Max Temperature 62 °F 68 °F 88 °F (1963)
Min Temperature 46 °F 44 °F 25 °F (1967)
Degree Days  
Heating Degree Days 11 9  
Month to date heating degree days 207  
Since 1 July heating degree days 2273  
Cooling Degree Days 0 1  
Month to date cooling degree days 5  
Year to date cooling degree days 11  
Growing Degree Days 4 (Base 50)    
Moisture  
Dew Point 48 °F    
Average Humidity 79    
Maximum Humidity 100    
Minimum Humidity 63    
Precipitation  
Precipitation 0.26 in 0.10 in 1.66 in (1969)
Month to date precipitation 1.99  
Year to date precipitation 8.14  
Sea Level Pressure  
Sea Level Pressure 30.03 in    
Wind  
Wind Speed 8 mph (NE)    
Max Wind Speed 22 mph    
Max Gust Speed 30 mph    
Visibility 9 miles    
Events Rain , Thunderstorm    
T = Trace of Precipitation, MM = Missing Value Source: NWS Daily Summary

Daily Weather History Graph

Daily Weather History Graph

Search for Another Location

Airport or City:

Trip Planner

Search our weather history database for the weather conditions in past years. The results will help you decide how hot, cold, wet, or windy it might be!

Date:

Astronomy

Mar. 18, 2013 Rise Set
Actual Time 7:23 AM EDT 7:27 PM EDT
Civil Twilight 6:58 AM EDT 7:52 PM EDT
Nautical Twilight 6:29 AM EDT 8:21 PM EDT
Astronomical Twilight 5:59 AM EDT 8:51 PM EDT
Moon 11:36 AM EDT (3/18) 1:10 AM EDT (3/18)
Length of Visible Light 12h 54m
Length of Day
12h 04m
Waxing Crescent, 40% of the Moon is Illuminated
Mar 18
Waxing Crescent
Mar 19
First Quarter
Mar 27
Full
Apr 3
Last Quarter
Apr 10
New

Hourly Weather History & Observations

Time (EDT) Temp. Windchill Dew Point Humidity Pressure Visibility Wind Dir Wind Speed Gust Speed Precip Events Conditions
12:15 AM 53.6 °F - 50.0 °F 88% 30.08 in 7.0 mi ENE 11.5 mph - N/A   Mostly Cloudy
12:55 AM 53.6 °F - 50.0 °F 88% 30.07 in 10.0 mi ENE 6.9 mph - N/A   Overcast
1:15 AM 53.6 °F - 50.0 °F 88% 30.08 in 10.0 mi ENE 9.2 mph - N/A   Overcast
1:35 AM 53.6 °F - 50.0 °F 88% 30.08 in 10.0 mi East 6.9 mph - N/A   Overcast
1:55 AM 53.6 °F - 50.0 °F 88% 30.07 in 10.0 mi ENE 11.5 mph - N/A   Overcast
2:15 AM 53.6 °F - 48.2 °F 82% 30.08 in 10.0 mi East 11.5 mph 16.1 mph N/A   Overcast
2:35 AM 51.8 °F - 48.2 °F 88% 30.07 in 10.0 mi ENE 6.9 mph - N/A   Overcast
2:55 AM 51.8 °F - 48.2 °F 88% 30.07 in 10.0 mi ENE 9.2 mph - N/A   Overcast
3:15 AM 51.8 °F - 46.4 °F 82% 30.07 in 10.0 mi NE 11.5 mph - N/A   Overcast
3:35 AM 51.8 °F - 46.4 °F 82% 30.07 in 7.0 mi ENE 9.2 mph - N/A   Overcast
3:55 AM 51.8 °F - 46.4 °F 82% 30.07 in 7.0 mi ENE 11.5 mph 17.3 mph N/A   Overcast
4:15 AM 51.8 °F - 46.4 °F 82% 30.07 in 10.0 mi ENE 9.2 mph - N/A   Overcast
4:35 AM 50.0 °F - 46.4 °F 87% 30.07 in 10.0 mi East 6.9 mph - N/A   Overcast
4:55 AM 50.0 °F - 46.4 °F 87% 30.07 in 10.0 mi NE 10.4 mph - N/A   Overcast
5:15 AM 50.0 °F - 44.6 °F 82% 30.07 in 7.0 mi ENE 8.1 mph - N/A   Overcast
5:35 AM 50.0 °F - 44.6 °F 82% 30.09 in 10.0 mi NE 11.5 mph - N/A   Overcast
5:55 AM 50.0 °F - 44.6 °F 82% 30.09 in 10.0 mi ENE 6.9 mph - N/A   Overcast
6:15 AM 50.0 °F - 44.6 °F 82% 30.09 in 10.0 mi ENE 8.1 mph - N/A   Overcast
6:35 AM 50.0 °F - 44.6 °F 82% 30.11 in 10.0 mi North 9.2 mph - N/A   Overcast
6:55 AM 48.2 °F - 42.8 °F 82% 30.11 in 10.0 mi NNE 9.2 mph - N/A   Overcast
7:15 AM 48.2 °F - 42.8 °F 82% 30.13 in 10.0 mi North 8.1 mph - N/A   Overcast
7:35 AM 46.4 °F 42.9 °F 42.8 °F 87% 30.12 in 10.0 mi NNE 6.9 mph - N/A   Overcast
7:55 AM 46.4 °F 42.9 °F 42.8 °F 87% 30.12 in 10.0 mi NE 6.9 mph - N/A   Overcast
8:15 AM 46.4 °F 42.4 °F 42.8 °F 87% 30.12 in 10.0 mi NE 8.1 mph - N/A   Overcast
8:35 AM 46.4 °F 42.4 °F 42.8 °F 87% 30.13 in 10.0 mi North 8.1 mph - N/A   Overcast
8:55 AM 48.2 °F - 42.8 °F 82% 30.13 in 10.0 mi NNE 9.2 mph - N/A   Overcast
9:15 AM 50.0 °F - 42.8 °F 76% 30.13 in 7.0 mi NE 9.2 mph - N/A   Overcast
9:35 AM 50.0 °F - 42.8 °F 76% 30.12 in 7.0 mi NNE 9.2 mph - N/A   Overcast
9:55 AM 50.0 °F - 42.8 °F 76% 30.13 in 7.0 mi NE 9.2 mph - N/A   Overcast
10:15 AM 50.0 °F - 42.8 °F 76% 30.12 in 7.0 mi ENE 6.9 mph - N/A   Overcast
10:35 AM 51.8 °F - 44.6 °F 76% 30.12 in 7.0 mi ENE 8.1 mph - N/A   Overcast
10:55 AM 53.6 °F - 44.6 °F 72% 30.11 in 7.0 mi ENE 8.1 mph - N/A   Overcast
11:15 AM 53.6 °F - 44.6 °F 72% 30.11 in 10.0 mi ENE 6.9 mph - N/A   Overcast
11:35 AM 55.4 °F - 46.4 °F 72% 30.10 in 10.0 mi ENE 6.9 mph - N/A   Overcast
11:55 AM 55.4 °F - 46.4 °F 72% 30.09 in 10.0 mi ENE 6.9 mph - N/A   Mostly Cloudy
12:15 PM 57.2 °F - 46.4 °F 67% 30.09 in 7.0 mi ENE 3.5 mph - N/A   Overcast
12:35 PM 59.0 °F - 48.2 °F 67% 30.08 in 7.0 mi ESE 4.6 mph - N/A   Overcast
12:55 PM 59.0 °F - 46.4 °F 63% 30.07 in 10.0 mi NE 3.5 mph - N/A   Mostly Cloudy
1:15 PM 60.8 °F - 48.2 °F 63% 30.06 in 10.0 mi Calm Calm - N/A   Overcast
1:35 PM 60.8 °F - 48.2 °F 63% 30.05 in 7.0 mi NNW 4.6 mph - N/A   Overcast
1:55 PM 60.8 °F - 48.2 °F 63% 30.05 in 10.0 mi NNE 5.8 mph - N/A   Overcast
2:15 PM 60.8 °F - 50.0 °F 68% 30.02 in 10.0 mi Calm Calm - N/A   Overcast
2:35 PM 59.0 °F - 48.2 °F 67% 30.01 in 7.0 mi North 10.4 mph - N/A   Overcast
3:15 PM 59.0 °F - 48.2 °F 67% 29.99 in 7.0 mi North 8.1 mph - N/A   Overcast
3:35 PM 59.0 °F - 48.2 °F 67% 29.98 in 7.0 mi NNE 6.9 mph - N/A   Overcast
3:55 PM 59.0 °F - 48.2 °F 67% 29.97 in 7.0 mi North 6.9 mph - N/A   Overcast
4:15 PM 59.0 °F - 48.2 °F 67% 29.97 in 7.0 mi North 6.9 mph - N/A   Overcast
4:35 PM 60.8 °F - 50.0 °F 68% 29.96 in 7.0 mi NNE 6.9 mph - N/A   Overcast
4:55 PM 60.8 °F - 50.0 °F 68% 29.96 in 7.0 mi NNE 5.8 mph - N/A   Overcast
5:15 PM 60.8 °F - 50.0 °F 68% 29.96 in 7.0 mi North 3.5 mph - N/A   Overcast
5:35 PM 62.6 °F - 50.0 °F 63% 29.94 in 10.0 mi NE 5.8 mph - N/A   Mostly Cloudy
5:55 PM 60.8 °F - 50.0 °F 68% 29.94 in 10.0 mi East 3.5 mph - N/A   Mostly Cloudy
6:15 PM 62.6 °F - 51.8 °F 68% 29.92 in 10.0 mi ENE 4.6 mph - N/A   Overcast
6:35 PM 62.6 °F - 51.8 °F 68% 29.92 in 10.0 mi SSE 4.6 mph - N/A   Mostly Cloudy
6:55 PM 62.6 °F - 53.6 °F 72% 29.93 in 10.0 mi SE 5.8 mph - N/A   Overcast
7:15 PM 60.8 °F - 53.6 °F 77% 29.93 in 10.0 mi SE 6.9 mph - N/A   Mostly Cloudy
7:35 PM 60.8 °F - 53.6 °F 77% 29.92 in 10.0 mi SSE 8.1 mph - N/A   Mostly Cloudy
7:55 PM 59.0 °F - 53.6 °F 82% 29.90 in 10.0 mi SE 9.2 mph - N/A   Mostly Cloudy
8:15 PM 59.0 °F - 53.6 °F 82% 29.91 in 10.0 mi SSE 6.9 mph - N/A   Mostly Cloudy
8:35 PM 59.0 °F - 53.6 °F 82% 29.91 in 10.0 mi SE 4.6 mph - N/A   Mostly Cloudy
8:55 PM 57.2 °F - 53.6 °F 88% 29.88 in 10.0 mi SE 8.1 mph - N/A   Scattered Clouds
9:15 PM 57.2 °F - 53.6 °F 88% 29.89 in 10.0 mi SE 4.6 mph - N/A   Scattered Clouds
9:35 PM 57.2 °F - 53.6 °F 88% 29.89 in 10.0 mi SE 3.5 mph - N/A   Overcast
9:55 PM 57.2 °F - 55.4 °F 94% 29.91 in 10.0 mi Calm Calm - N/A   Overcast
10:15 PM 57.2 °F - 55.4 °F 94% 29.91 in 10.0 mi Calm Calm - N/A   Overcast
10:35 PM 57.2 °F - 57.2 °F 100% 29.89 in 10.0 mi NE 6.9 mph - N/A   Overcast
10:55 PM 57.2 °F - 57.2 °F 100% 29.90 in 10.0 mi North 3.5 mph - N/A Thunderstorm Overcast
11:15 PM 57.2 °F - 57.2 °F 100% 29.93 in 10.0 mi NNW 21.9 mph 29.9 mph N/A Thunderstorm Overcast
11:35 PM 51.8 °F - 50.0 °F 94% 29.96 in 3.0 mi NW 12.7 mph 25.3 mph 0.15 in Rain , Thunderstorm Heavy Thunderstorms and Rain
11:55 PM 48.2 °F - 48.2 °F 100% 29.95 in 4.0 mi NNW 15.0 mph 20.7 mph 0.26 in Rain , Thunderstorm Heavy Thunderstorms and Rain